Cloud_Cover
100 100 80 2 0 1 2 0 4 5 5 1 0 0 0 4 0 0 0 1 5 4 28 26 12 30 7 5 38 95 100 100 100 100 100 88 51 74 97 53 100 45 70
99 87 54 100 100 97 95 18 5 7 28 61 5 5 5 3 1 0 5 5 5 5 4 2 12 32 68 22 75 100 100 100 100 100 99 33 12 97 97 78 100 84 74
100 100 100 100 100 100 70 30 32 14 83 93 85 100 79 27 15 4 5 5 5 58 24 0 12 52 78 18 100 100 100 100 100 100 10 0 0 6 26 81 69 81 82
70 100 100 100 100 100 99 57 30 61 100 100 100 97 67 5 5 51 42 5 43 50 18 0 46 66 47 96 100 100 100 100 100 100 77 0 1 0 0 0 37 98 82
0 2 15 77 100 100 100 100 100 100 100 100 100 100 16 5 5 18 19 79 75 95 8 0 50 45 3 100 91 97 100 100 30 100 100 16 5 2 3 0 38 43 41
5 100 100 99 100 100 100 100 100 100 100 95 100 100 19 91 5 91 50 67 5 10 25 48 45 15 100 97 33 57 46 96 100 100 100 1 16 1 2 1 19 39 68
5 85 100 100 48 10 4 26 8 68 100 92 97 5 5 5 1 0 0 5 3 4 10 57 79 92 100 7 50 16 4 41 38 100 100 2 3 2 0 0 16 70 37
68 79 26 12 65 24 5 5 5 5 9 56 38 5 3 0 2 100 62 16 6 0 0 11 100 100 100 99 98 55 49 5 99 100 100 4 1 0 0 19 5 26 0
5 46 59 73 100 66 5 5 5 5 4 4 0 0 0 0 45 100 100 49 29 35 62 59 100 100 100 96 100 76 73 37 81 100 100 8 0 0 4 5 87 36 0
100 42 100 100 100 100 81 14 83 92 66 10 4 0 0 0 10 100 70 53 28 73 85 61 100 99 89 100 53 50 92 99 5 99 100 61 18 0 0 0 60 100 25
100 100 100 100 100 77 100 100 100 100 100 66 39 41 0 0 0 100 100 33 60 86 43 86 100 97 99 100 100 67 25 31 5 61 100 96 36 11 3 10 64 92 100
17 43 78 100 100 100 97 90 89 65 100 100 100 100 100 100 78 51 100 94 62 100 100 100 100 96 100 100 100 85 83 100 5 17 40 100 95 47 22 11 46 2 22
0 0 1 18 96 99 96 41 5 5 5 0 1 3 30 31 96 96 100 100 99 100 100 100 100 99 100 100 100 100 100 100 88 25 92 63 98 100 74 89 45 0 10
0 0 0 0 0 0 0 0 10 22 7 3 2 0 0 0 0 0 0 19 97 90 92 87 100 100 100 100 100 100 100 100 100 100 66 86 100 100 99 81 31 8 54
0 0 0 0 0 0 0 0 0 0 0 0 0 0 0 0 8 58 43 7 22 70 95 100 100 100 100 100 98 80 100 100 100 100 100 92 91 94 100 68 55 46 99
9 1 0 1 0 0 0 0 0 0 0 0 44 54 0 0 100 100 100 100 100 100 99 100 100 100 100 100 100 92 94 100 100 100 100 100 92 40 59 40 36 81 94
43 66 99 92 85 88 38 15 2 0 0 0 65 100 100 13 100 100 100 97 100 100 100 98 87 48 99 100 100 100 90 12 100 100 100 99 89 87 62 79 41 99 100
2 97 98 94 60 100 99 100 48 20 0 0 74 76 97 100 100 100 100 98 48 87 100 96 98 100 100 100 27 99 87 99 70 58 100 100 90 100 90 81 92 83 98
93 6 100 100 100 84 100 82 53 93 61 31 30 46 59 100 100 100 100 52 0 0 0 37 76 95 100 77 47 53 88 56 80 87 98 100 100 100 98 75 60 100 100
80 4 30 14 59 68 70 60 71 33 24 100 50 39 78 31 20 4 4 0 0 0 0 0 0 20 26 35 19 95 100 92 60 55 77 100 100 100 100 99 92 100 74
100 91 85 100 100 78 98 29 57 100 93 49 100 100 100 100 25 48 77 45 9 0 15 81 58 86 72 20 45 24 76 92 80 26 59 100 100 100 100 100 100 100 100
100 100 100 100 100 100 100 100 100 98 96 67 36 99 88 0 2 36 7 18 80 85 56 99 100 100 82 10 28 55 100 94 94 53 83 99 100 70 100 100 100 100 91
100 100 100 100 100 100 100 100 100 100 91 26 100 100 94 31 51 12 26 71 98 80 100 100 100 100 100 100 98 100 100 100 100 47 76 94 100 56 100 90 97 100 100
100 100 100 100 100 100 100 100 100 100 100 100 96 92 38 24 74 91 99 100 100 100 100 100 100 100 100 100 100 100 100 83 68 59 76 100 98 98 100 89 100 99 99
100 100 100 100 100 100 100 100 100 100 100 100 100 97 100 99 100 100 100 100 100 100 100 100 100 100 100 93 100 100 100 100 97 75 79 97 88 100 100 93 43 96 100
100 100 100 96 100 100 100 100 100 100 100 100 100 82 87 100 100 100 100 100 100 100 100 100 100 100 100 99 99 88 90 84 88 100 100 82 40 55 98 90 91 100 96